Погода Максимкин Яр

Погода Максимкин Яр : погода сейчас, прогноз погоды и архив. Всё, что Вы хотите узнать о погоде Максимкин Яр!

Поиск расширенной информации на нашем сайте:

Другие новости

Новости СМИ2

Главная страница сайта

Новости сайта

03.07.2017

Напоминаем, что на нашем специализированном сайте Метеоцентр.Азия вы можете получить высокодетализированные автоматические прогнозы погоды по пунктам России, СНГ и мира в авиационном формате (включающие направление и скорость ветра, видимость, явления погоды, количество и форму облачности, нижнюю и верхнюю границу облачности).


Погода Максимкин Яр - сегодня

Время (UTC), дата Ветер
(°,м/с) 
Видим.   Явления Облачность Т
(°С)
Тd
(°С)
f(%) Тe
(°С)
Pmin
(гПа)
dP
(гПа)
Po
(мм)
O2
(г/м3)
Тmin Tmax R s Состояние
почвы
15 17.09.17 140 (ЮВ) 10 км  слаб. ливневой дождь  10/10 600 м кучево-дожд. 
[Cb cap]
+6 +4.8 92 +5  1010.2  -3.3  748  294           
18 17.09.17 150 (ЮВ) 20000 м  в посл. час ливневой дождь  10/10 600 м кучево-дожд. 
[Cb cap]
+6.8 +6 95 +6  1006.6  -3.6  745  292           
21 17.09.17 150 (ЮВ) 20000 м  {ливн. осадки}  10/10 300 м кучево-дожд. 
[Cb cap]
+6.8 +6.1 95 +8  1003.2  -3.3  743  291           
00 18.09.17 тихо ()   20000 м  {ливн. осадки}  10/10 300 м кучево-дожд. 
[Cb cap]
+7.9 +7.2 95 +8  1002.6  -0.6  743  290  +6    13    мокрая 
03 18.09.17 230 (ЮЗ) 20000 м    10/10 600 м 
[Sc]
+9.4 +8.6 95 +9  1003.7  1.2  743  288           
06 18.09.17 240 (ЮЗ) 20000 м    8/8 600 м кучево-дожд. 
[Cb cap]
+13.3 +9.1 76 +13  1004.8  1.2  744  284           
09 18.09.17 210 (ЮЗ) 20000 м    8/4 600 м кучево-дожд., средняя, верхняя 
[Cb cap|Ac trans|Ci fib]
+15.3 +8.2 63 +16  1005.6  0.9  745  283           
12 18.09.17 190 (Ю) 20000 м    6/3 600 м кучево-дожд., средняя, верхняя 
[Cb cap|Ac trans|Ci sp]
+11.7 +8.8 82 +13  1006  0.3  745  286    +15.6       
15 18.09.17 150 (ЮВ) 20000 м    8/4 600 м кучево-дожд., средняя 
[Cb cap|Ac trans]
+7.7 +6.9 95 +9  1006.8  0.6  746  291           
18 18.09.17 тихо ()   20000 м    8/6 600 м кучево-дожд., средняя 
[Cb cap|Ac trans]
+6.2 +5.6 96 +6  1006.4  -0.5  745  293           
21 18.09.17 тихо ()   20000 м    10/6 600 м средняя 
[Sc|Ac und]
+6.1 +5.5 96 +6  1005.5  -0.9  745  293           
00 19.09.17 тихо ()   20000 м    10/9 600 м средняя 
[Sc|Ac und]
+5.2 +4.6 96 +5  1005.7  0.2  745  294  +5.1        влажная 
03 19.09.17 тихо ()   20000 м    10/10 600 м 
[Sc]
+8 +7.2 95 +8  1006.4  0.8  745  291           
06 19.09.17 170 (Ю) 20000 м  осадки на расстоянии{дождь}  10/10 600 м 
[Sc]
+12 +7.9 76 +13  1007  0.8  746  287           
09 19.09.17 тихо ()   20000 м  в посл. час ливневой дождь  10/10 600 м кучево-дожд. 
[Cb cap]
+11.8 +9.8 88 +13  1007.9  0.9  747  287           
12 19.09.17 тихо ()   20000 м  осадки на расстоянии{ливн. осадки}  10/8 600 м кучево-дожд., средняя 
[Cb cap|As op]
+10.8 +9.8 94 +12  1009  747  288    +12.7     
15 19.09.17 260 (З) 20000 м    10/10 600 м кучево-дожд. 
[Cb cap]
+10 +9.3 95 +11  1010.3  1.2  748  289           
18 19.09.17 280 (З) 10 км  слаб. ливневой дождь  10/10 600 м кучево-дожд. 
[Cb cap]
+9.2 +8.5 95 +10  1011.2  0.9  749  290           
21 19.09.17 300 (СЗ) 10 км  слаб. ливневой дождь  10/10 600 м кучево-дожд. 
[Cb cap]
+8.8 +8.2 96 +9  1012  0.8  750  291           
00 20.09.17 340 (С) 4000 м  дымка{ливн. осадки}  10/10 600 м кучево-дожд. 
[Cb cap]
+8.5 +7.9 96 +9  1013.9  1.8  751  292  +8.5      влажная 
03 20.09.17 310 (СЗ) 20000 м    10/10 600 м кучево-дожд. 
[Cb cap]
+9.1 +8.1 93 +9  1015.5  1.7  752  292           
06 20.09.17 290 (З) 20000 м    10/10 600 м кучево-дожд. 
[Cb cap]
+9.9 +8 88 +10  1016.7  1.2  753  291           
09 20.09.17 тихо ()   20000 м  в посл. час ливневой дождь  9/9 600 м кучево-дожд. 
[Cb cap]
+10.4 +8.1 86 +10  1017.2  0.5  753  291           
12 20.09.17 тихо ()   20000 м  {ливн. осадки}  9/6 600 м кучево-дожд., средняя 
[Cb cap|Ac As]
+9.7 +8.7 93 +10  1017.6  0.3  754  292    +13  0.8     
15 20.09.17 230 (ЮЗ) 20000 м    8/8 600 м кучево-дожд. 
[Cb cap]
+8.8 +7.4 91 +10  1017.9  0.3  754  293           
Время (UTC), дата Ветер
(°,м/с) 
Видим.   Явления Облачность Т
(°С)
Тd
(°С)
f(%) Тe
(°С)
Pmin
(гПа)
dP
(гПа)
Po
(мм)
O2
(г/м3)
Тmin Tmax R s Состояние
почвы

Для получения пояснительной информации подведите курсор к названию столбца.

ПОГОДА Максимкин Яр - архив

Всё, что Вы хотите узнать о погоде Максимкин Яр - удобно и подробно!

Выберите нужную дату (начиная с 1 января 2015* года) и нажмите кнопку "Найти".
Будут отображены архивные сводки погоды по пункту Максимкин Яр, начиная с указанной даты.


Отображать данные в формате CSV (для использования в таблицах Excel)


Внимание! Наш архив погоды предназначен исключительно для личного некоммерческого использования в познавательных целях. Если Вам необходимы официальные справки о состоянии погоды (для производственных, юридических, коммерческих и т.п. целей), обращайтесь в органы Росгидромета.

*Примечание: данная дата относится к архиву по метеостанциям СССР (Россия, СНГ, Балтия).
Архив по метеостанциям Зарубежной Европы и Азии (кроме Китая) хранится 10 дней, по другим регионам земного шара (Китай, Африка, Америка, Австралия, Океания) - 1 день.

Максимкин Яр - район местоположения метеостанции


Название, широта, долгота, высота метеостанции:
Максимкин Яр 58.6°ш. 86.7°д. 105 м над ур. моря [Российская Федерация]

Дополнительная информация

В oтличие oт бoльшинства пoгoдных сайтoв мы публикуем пoдрoбную метеoинфoрмацию в детальнoм прoфессиoнальнoм фoрмате.

Характеристики температуры и влажнoсти вoздуха измеряются на высoте 2 м в тени вдали oт зданий и деревьев.
Скoрoсть ветра измеряется на высoте 10 м (на урoвне рoста челoвека скoрoсть ветра ниже в 1.5-2 раза). Если метеoстанция нахoдится в гoрoде или в лесу, тo скoрoсть ветра занижена на 2-4 м/с пo сравнению с oткрытым местoм. Скoрoсть ветра над акватoриями крупных рек и oзёр, а также на вершинах хoлмoв на 2-5 м/с выше, чем в oбычных услoвиях.
Атмoсфернoе давление в разных тoчках местнoсти мoжет значительнo oтличаться oт давления на метеoстанции, в зависимoсти oт услoвий рельефа (при пoдъёме на 10 м давление пoнижается примернo на 1 мм рт.ст.).